Regional Weather Roundup
Issued by NWS

Home | Current Version | Previous Version | Graphics & Text | Print | Product List | Glossary On
Versions: 1 2 3 4 5 6 7 8 9 10 11 12 13 14 15 16 17 18 19 20 21 22 23 24 25 26 27 28 29 30 31 32 33 34 35 36 37 38 39 40 41 42 43 44 45 46 47 48 49 50
000
ASUS43 KLSX 181557
RWRMO

WEATHER SUMMARY FOR MISSOURI
NATIONAL WEATHER SERVICE SPRINGFIELD MO
1000 AM CST SUN FEB 18 2018

NOTE: "FAIR" INDICATES FEW OR NO CLOUDS BELOW 12,000 FEET WITH NO
       SIGNIFICANT WEATHER AND/OR OBSTRUCTIONS TO VISIBILITY.
       CURRENT SKY AND/OR WEATHER CONDITIONS ARE NOT AVAILABLE FOR
       CHILLICOTHE AND FARMINGTON.

MOZ001>031-035>038-043-044-053-054-181700-
...NORTHERN AND WESTERN MISSOURI...

CITY           SKY/WX    TMP DP  RH WIND       PRES   REMARKS
KANSAS CTY INT CLOUDY    48  27  44 S23G32    30.00F
LEE`S SUMMIT     N/A     45  32  60 S20G28    30.05F
ST JOSEPH      CLOUDY    48  30  49 S24G32    29.97F
CHILLICOTHE      N/A     45  32  60 S15G24    30.06F

$$
MOZ066>068-077>081-088>096-101>105-181700-
...SOUTHWEST MISSOURI...

CITY           SKY/WX    TMP DP  RH WIND       PRES   REMARKS
SPRINGFIELD    MOSUNNY   42  35  76 S25G36    30.13S
JOPLIN         MOSUNNY   44  31  60 S18G25    30.10S
BRANSON        CLOUDY    41  32  70 SE24G33   30.16F

$$
MOZ032>034-039>042-045>050-055>058-069>072-181700-
...CENTRAL MISSOURI...

CITY           SKY/WX    TMP DP  RH WIND       PRES   REMARKS
COLUMBIA       NOT AVBL
JEFFERSON CITY CLOUDY    44  32  62 SE17G24   30.18F
ROLLA          SUNNY     43  33  68 S15G25    30.18F
SEDALIA        CLOUDY    47  32  56 S18G30    30.11F
WARRENSBURG    PTSUNNY   41  32  70 SE12G18   30.09F

$$
MOZ051-052-059>065-181700-
...EAST CENTRAL MISSOURI...

CITY           SKY/WX    TMP DP  RH WIND       PRES   REMARKS
ST LOUIS INTL  CLOUDY    44  30  57 SE20      30.24F

$$
MOZ072>076-082>087-097>100-106>115-181700-
...SOUTH CENTRAL AND SOUTHEAST MISSOURI...

CITY           SKY/WX    TMP DP  RH WIND       PRES   REMARKS
CAPE GIRARDEAU FAIR      41  39  93 SE14      30.29S
POPLAR BLUFF   FAIR      40  38  93 SE8       30.27F
WEST PLAINS    MOSUNNY   42  36  79 SE14G23   30.21S

$$



USA.gov is the U.S. government's official web portal to all federal, state and local government web resources and services.